COSMOS 2251 DEB

Satellite information

Favourite Embed

Satellite Type and Status

DEBRISIN ORBIT

Key statistics

Satellite COSMOS 2251 DEB at a glance.

Uptime

11820

Days in orbit

Revolutions

≈ 14.6

Per day

Orbit

LEO

Low Earth Orbit

Inclination

74.0

Latest

Satellite identification and parameters

Extended collection of information and parameters for COSMOS 2251 DEB.

Object identification

Identified? True

Debris? True

Object name: COSMOS 2251 DEB

International designator: 1993-036BVU

Object number (NORAD): 40239

Object ID (CCSDS): 40239

Country: COMMONWEALTH OF INDEPENDENT STATES (CIS)

Current information (Y/N): Y

RCS size: SMALL

Orbital parameters

Period: 98.514 minutes

Inclination: 74.0337 deg

SMA: 7065.748 km

Apoapsis: 747.483 km

Periapsis: 627.743 km

RAAN: 10.1537 deg

Eccentricy: 0.00847326

Argument of periapsis: 135.2365 deg

Mean anomaly: 245.3186 deg

Mean motion: 14.61724478 rev/day

Mean motion (dot): 0.00002458 rev/day2

B* drag term: 0.00047457897 1/REarth

Two-line elements (TLE)

Creation date: Oct. 25, 2025, 3:11 a.m.

Reference frame: TEME

Reference center: EARTH

Epoch: Oct. 24, 2025, 11:29 a.m. UTC

TLE line 0: 0 COSMOS 2251 DEB

TLE line 1: 1 40239U 93036BVU 25297.47848662 .00002458 00000-0 47458-3 0 9999

TLE line 2: 2 40239 74.0337 10.1537 0084733 135.2365 245.3186 14.61724478588915

Live tracking on map

Real-time ground track for satellite COSMOS 2251 DEB.

In-orbit conjunctions

A list of the most updated potential collisions computed for object COSMOS 2251 DEB.

Target Orbit TCA Probability of collision Miss distance Type
RUBIN 9.1/RUBIN 9.2/PSLV SSO 2025-05-17 04:39:01 0.001227162 106.0 (m) PAYLOAD
FENGYUN 1C DEB SSO 2024-06-07 08:56:34 0.000279679 74.0 (m) DEBRIS

Associated space launch

Military communications satellite. Destroyed in a collision with Iridium 33.

COSMOS 2251 DEB was lifted into orbit during the mission ‘Kosmos-3M | Strela-2M 51’, on board a Kosmos-3M space rocket.

The launch took place on June 16, 1993, 4:17 a.m. from 132/1 (132L).

For more information about the launch, click the button.

Launch to space Kosmos-3M | Strela-2M 51
Kosmos-3M | Strela-2M 51

Agency: N/A

Status: Launch Successful

Launch date: June 16, 1993, 4:17 a.m. UTC

Rocket: Kosmos-3M

Launch pad: 132/1 (132L)

Location: Plesetsk Cosmodrome, Russian Federation

...

Latest news about this satellite

There are no fresh news available about this satellite. Check back as we update our databases every day.


Newsletter sign-up

Weekly statistics, charts and insights to help you stay on top of the space industry.